RADCAL 1 22698U 93041A 08185.44334104 .00000035 00000-0 93824-5 0 898 2 22698 89.5190 45.9882 0090852 17.6317 342.7990 14.22796535779681 STRV 1A 1 23125U 94034B 08184.51194045 .00000746 00000-0 19962-3 0 2184 2 23125 7.3539 278.3001 6852805 276.3385 16.0869 2.82600446129511 STRV 1B 1 23126U 94034C 08184.36316026 .00002576 00000-0 31722-3 0 2465 2 23126 7.1565 230.2533 6821588 11.2775 358.5671 2.89556497131486 HELIOS 1A 1 23605U 95033A 08186.18802314 .00000034 00000-0 15595-4 0 1769 2 23605 98.1279 121.7833 0002772 71.7137 288.4370 14.63839123694262 REX 2 1 23814U 96014A 08185.37842423 .00000005 00000-0 -25486-5 0 4220 2 23814 90.1587 265.9934 0023624 19.2690 340.9389 14.23843848639911 COSMOS 2346 1 24953U 97052A 08185.65004897 .00000022 00000-0 63413-5 0 1973 2 24953 82.9211 216.5763 0041192 32.3370 328.0300 13.79432481542574 ARGOS 1 25634U 99008A 08185.12317887 .00000105 00000-0 72482-4 0 4645 2 25634 99.0490 209.5954 0009452 219.4678 140.5834 14.18893975484549 HELIOS 1B 1 25977U 99064A 08186.03470247 -.00000071 00000-0 -21677-5 0 3406 2 25977 98.3135 169.0431 0001635 30.3969 329.7346 14.77599413460510 MTI 1 26102U 00014A 08186.15483749 .00000538 00000-0 35189-4 0 6623 2 26102 97.1925 4.1635 0018629 236.6390 188.0105 15.11526109456829 STRV 1C 1 26610U 00072C 08184.16097847 .00000181 00000-0 00000+0 0 8085 2 26610 7.0814 32.6184 7342507 206.4589 81.0435 2.03457371 56692 OFEQ 5 1 27434U 02025A 08186.19146991 .00000708 00000-0 16706-4 0 2466 2 27434 143.4653 358.2135 0026780 11.2785 3.9564 15.05233375340820 HELIOS-2A 1 28492U 04049A 08186.15246044 .00000012 00000-0 11336-4 0 9891 2 28492 98.1313 121.7550 0001828 71.3042 288.8363 14.63819686189221 ESSAIM-1 1 28494U 04049C 08186.18774176 -.00000540 00000-0 -81354-4 0 456 2 28494 98.2055 136.0261 0001693 253.7424 106.3584 14.70163273189956 ESSAIM-2 1 28495U 04049D 08186.18725014 -.00000921 00000-0 -14471-3 0 823 2 28495 98.2055 136.1047 0002615 249.6665 110.4242 14.70161813189951 ESSAIM-3 1 28496U 04049E 08186.18788350 -.00000923 00000-0 -14481-3 0 122 2 28496 98.2172 139.8661 0007644 268.7379 91.2944 14.70161402190136 ESSAIM-4 1 28497U 04049F 08186.18741435 -.00000866 00000-0 -13530-3 0 687 2 28497 98.2170 139.8980 0010840 264.1028 95.8932 14.70161625190136 SAR-LUPE 1 1 29658U 06060A 08186.14914036 .00000551 00000-0 24315-4 0 7441 2 29658 98.1148 249.6553 0023738 30.5466 52.0087 15.26445436 85830 MIDSTAR-1 1 30773U 07006B 08186.00537628 -.00000304 00000-0 00000+0 0 3808 2 30773 46.0299 52.5887 0010560 113.5445 246.6512 15.23523962 73635 CFESAT 1 30777U 07006F 08185.87523269 .00000186 00000-0 16832-4 0 3512 2 30777 35.4328 54.5230 0002370 124.9931 235.1010 15.02528261 72633 NFIRE 1 31140U 07014A 08185.53162387 .00002453 00000-0 37298-4 0 5148 2 31140 48.2292 289.0335 0049460 285.9306 73.6191 15.57660756 67822 OFEQ 7 1 31601U 07025A 08186.19333333 .00001205 00000-0 33229-4 0 2316 2 31601 141.7456 176.6891 0074649 289.0089 277.5501 15.18657296 59488 SAR-LUPE 2 1 31797U 07030A 08186.15033721 .00000481 00000-0 21777-4 0 1399 2 31797 98.1956 315.7149 0015212 339.7505 144.9699 15.26442864 56050 SAR-LUPE 3 1 32283U 07053A 08186.15898235 .00000423 00000-0 19544-4 0 7711 2 32283 98.1589 19.9486 0013780 84.6864 53.4910 15.26433049 37562 SAR-LUPE 4 1 32750U 08014A 08186.20295600 .00000477 00000-0 21566-4 0 3128 2 32750 98.1510 250.0895 0023487 192.6815 248.2940 15.26443050 15025